Погода в Ртищево

Россия / Саратовская область     52°15′26″N   43°47′08″E
темп.,
°C
ветер,
м/с
пор.,
м/с
влажн.,
%
обл.,
%
осадки,
мм/ч
давл.,
гПа
погр.,
м
19 апреля, пн
пн1901:00+9всв3588100 0.1 101897
04:00+9всв3688100 0.9 1018219
07:00+8всв4885100 0.2 1017321
10:00+8в5885100 1.0 1018605
13:00+8в6982100 0.2 1018762
16:00+9в61078100 0.2 1018903
19:00+8в61283100 0.0 1018832
22:00+8в71289100 0.1 1018831
20 апреля, вт
вт2001:00+6в61190100 0.2 1019680
04:00+5в61290100 0.2 1019598
07:00+5в71391100 0.8 1018583
10:00+5вюв81488100 0.8 1019561
13:00+4вюв91688100 0.4 1019644
16:00+4вюв101982100 0.8 1017682
19:00+5вюв112183100 0.6 1014810
22:00+7вюв122290100 4.6 1013902
21 апреля, ср
ср2101:00+7юв132490100 4.4 1010926
04:00+8юв122287100 5.4 1010952
07:00+8юв121989100 0.2 1009974
10:00+9ю101578100 0.4 1011992
13:00+10ю9137897 0.2 10131309
16:00+12юз7106795 0.5 10151384
19:00+11ююз366810 0.0 1016291
22:00+8ю389097 0.3 1018194
22 апреля, чт
чт2201:00+7ю479675 0.8 1019190
04:00+6ююз34955 0.8 102074
07:00+6ююз24915 0.0 1022100
10:00+10юз45695 0.0 1023811
13:00+13юз44515 0.0 10231558
16:00+15юз334437 0.0 10222002
19:00+14ююз23543 0.0 102365
22:00+10ю11587 0.0 102410
23 апреля, пт
пт2301:00+10юв226175 0.0 102413
04:00+8юв226976 0.0 102416
07:00+8юв3681100 0.0 1024159
10:00+14ю445239 0.6 10231196
13:00+16ююв334698 0.1 10222116
16:00+14ююв445994 0.9 1021971
19:00+13ююв4768100 0.8 1020337
22:00+9юв4108498 1.0 1020211